Regional Weather Roundup
Issued by NWS

Home | Current Version | Previous Version | Graphics & Text | Print | Product List | Glossary On
Versions: 1 2 3 4 5 6 7 8 9 10 11 12 13 14 15 16 17 18 19 20 21 22 23 24 25 26 27 28 29 30 31 32 33 34 35 36 37 38 39 40 41 42 43 44 45 46 47 48 49 50
000
ASUS43 KFSD 282310
RWRSD

WEATHER ROUNDUP FOR SOUTH DAKOTA
NATIONAL WEATHER SERVICE SIOUX FALLS SD
600 PM CDT THU MAY 28 2015

NOTE: "FAIR" INDICATES FEW OR NO CLOUDS BELOW 12,000 FEET WITH NO
SIGNIFICANT WEATHER AND/OR OBSTRUCTIONS TO VISIBILITY.


SDZ001>005-009-010-012>017-290000-
NORTHWEST AND NORTH CENTRAL SOUTH DAKOTA

CITY           SKY/WX    TMP DP  RH WIND       PRES   REMARKS
BUFFALO          N/A     67  55  65 SE5       29.84F
FAITH            N/A     62  57  83 E12       29.88F
MOBRIDGE       MOSUNNY   80  59  48 N7        29.77F
$$

SDZ012>016-024>037-041>051-057-063-072>074-290000-
SOUTHWEST AND SOUTH CENTRAL SOUTH DAKOTA

CITY           SKY/WX    TMP DP  RH WIND       PRES   REMARKS
RAPID CTY ARPT CLOUDY    62  53  72 NW16      29.95R THUNDER
PIERRE         LGT RAIN  68  58  70 SW6       29.79F
CUSTER         CLOUDY    53  47  79 N7        30.02F
ELLSWORTH AFB  TSTM      61  55  82 W14       29.96
PHILIP         PTSUNNY   76  58  53 MISG      29.83F
PINE RIDGE     CLOUDY    70  54  56 SE9       29.88F
SPEARFISH      FAIR      57  50  77 W16G25    30.02R
WINNER         LGT RAIN  69  59  70 SE16      29.81F
$$

SDZ004>011-016>023-039-040-290000-
NORTHEAST SOUTH DAKOTA

CITY           SKY/WX    TMP DP  RH WIND       PRES   REMARKS
ABERDEEN       MOSUNNY   84  59  42 SW20G25   29.75F
WATERTOWN      PTSUNNY   80  60  50 S17       29.82F
BROOKINGS      MOSUNNY   79  57  47 S20G25    29.86F
SISSETON         N/A     84  58  40 S26G35    29.77F
$$

SDZ017-020-022-023-036>040-048>070-290000-
SOUTHEAST SOUTH DAKOTA

CITY           SKY/WX    TMP DP  RH WIND       PRES   REMARKS
SIOUX FALLS    PTSUNNY   77  56  48 S25G33    29.87F
HURON            N/A    N/A N/A N/A MISG      29.78F
CHAMBERLAIN    LGT RAIN  65  60  82 W9G20     29.84R
MITCHELL       CLOUDY    82  58  43 S26G33    29.81F
YANKTON        PTSUNNY   75  61  60 S15G25    29.84F
$$

ABBREVIATIONS USED IN REMARKS
   TC - TEMPERATURE IN CELSIUS
  WCI - WIND CHILL INDEX
   HX - HEAT INDEX
  VSB - VISIBILITY



USA.gov is the U.S. government's official web portal to all federal, state and local government web resources and services.